Other Public Products
Issued by NWS Charleston, SC

Current Version | Previous Version | Graphics & Text | Print | Product List | Glossary On
Versions: 1 2 3 4 5 6 7 8 9 10 11 12 13 14 15 16 17 18 19 20 21 22 23 24 25 26 27 28 29 30 31 32 33 34 35 36 37 38 39 40 41 42 43 44 45 46 47 48 49 50
944 FPUS82 KCHS 270227 OPUCHS TEST...KCHS/KSAV Gateway Observations...TEST National Weather Service Charleston SC 1000 PM EDT SUN MAR 26 2017 NOTE: "fair" indicates few or no clouds below 12,000 feet with no significant weather and/or obstructions to visibility. SCZ050-WAZ558-NCZ071-TXZ119-213-PAZ071-DCZ001-FLZ074-172-MI076- NYZ176-178-MAZ016-IL014-TNZ027-NJZ106-GAZ044-MD014-270300- ...Gateway Observations for Charleston International... CITY SKY/WX TMP DP RH WIND PRES REMARKS Chas Airport PTCLDY 64 56 75 SE7 30.17R Seattle LGT RAIN 47 45 93 S3 29.77R FOG Charlotte CLOUDY 65 58 78 S13 30.13R Dallas DFW CLOUDY 80 58 46 S22G37 29.68R Dallas Love CLOUDY 79 57 46 S20G31 29.71S Philladelphia CLOUDY 41 39 93 E13 30.31S FOG Wash National DRIZZLE 48 47 96 E9 30.25S FOG Baltimore DRIZZLE 45 45 100 E10 30.26S FOG Miami PTCLDY 73 61 65 NE7 30.10S Detroit CLOUDY 49 49 100 CALM 29.91R FOG Newark DRIZZLE 41 38 89 E9 30.34F FOG Laguardia DRIZZLE 41 37 86 NE14 30.35F FOG J F K CLOUDY 40 39 97 E12 30.35F FOG WCI 33 Boston Logan LGT RAIN 37 31 78 SE13 30.44F WCI 29 Ft. Lauderdale PTCLDY 73 61 65 E8 30.10R Chicago O`Hare DRIZZLE 55 51 86 SW9 29.87R FOG Chicago Midway DRIZZLE 54 53 97 SW8 29.88R FOG Houston Bush MOCLDY 74 65 73 S14 29.86R Houston Hobby PTCLDY 71 67 87 SE5 29.87R Nashville MOCLDY 66 55 67 S3 30.01R Atlanta PTCLDY 69 54 58 SW3 30.07R $$ GAZ044-118-TXZ119-213-NCZ071-DCZ001-MDZ014-506-PAZ021-071-NJZ106- NYZ176-178-MAZ106-OHZ011-021-055-MIZ076-KYZ091-ILZ014-INZ047- MNZ060-ONZ431-270300- ...Gateway Observations for Savannah International... CITY SKY/WX TMP DP RH WIND PRES REMARKS Savannah Arpt CLEAR 66 58 75 SE8 30.16R Atlanta PTCLDY 69 54 58 SW3 30.07R Charlotte CLOUDY 65 58 78 S13 30.13R Dallas DFW CLOUDY 80 58 46 S22G37 29.68R Houston Bush MOCLDY 74 65 73 S14 29.86R Wash National DRIZZLE 48 47 96 E9 30.25S FOG Wash Dulles FOG 46 45 96 E8 30.23F VSB 1 Baltimore DRIZZLE 45 45 100 E10 30.26S FOG Philadelphia CLOUDY 41 39 93 E13 30.31S FOG Newark DRIZZLE 41 38 89 E9 30.34F FOG Laguardia DRIZZLE 41 37 86 NE14 30.35F FOG J F K CLOUDY 40 39 97 E12 30.35F FOG WCI 33 Boston LGT RAIN 37 31 78 SE13 30.44F WCI 29 Pittsburg CLOUDY 54 54 100 SE9 30.01S Akron LGT RAIN 57 52 83 S13 29.96R Cleveland MOCLDY 57 52 83 S8 29.95S Cincinnati PTCLDY 56 54 93 SW6 29.96R Columbus LGT RAIN 55 55 100 CALM 29.96S Detroit CLOUDY 49 49 100 CALM 29.91R FOG Chicago O`Hare DRIZZLE 55 51 86 SW9 29.87R FOG Minneapolis DRIZZLE 40 36 86 N7 29.93S WCI 35 Indianapolis CLOUDY 56 49 77 SW12 29.95R Toronto Canada CLOUDY 41 37 87 E7 29.98F $$

USA.gov is the U.S. government's official web portal to all federal, state and local government web resources and services.